WXM80 ListenWXM80 Stop

You find our weather info also at:

UK Metoffice

WeatherCloud

Weather Underground

Northeastern Weather Network

AWEKAS

Citizen Weather Observer Program (CWOP)

HAMweather, WeatherForYou, PWS Weather


Weather Underground History page Text

Daily Summary for July 19, 2017 Units:  English    Metric   Both
« Previous Day
Next Day »
Daily Weekly Monthly Yearly Custom
  High: Low: Average:
Temperature: 97.3 °F 73.9 °F 84.1 °F
Dew Point: 80.0 °F 64.5 °F 73 °F
Humidity: 94 % 35 % 73 %
Wind Speed: 8.2 mph 0.0 mph 1.4 mph
Wind Gust: 12.7 mph - -
Wind:- - WSW
Pressure: 30.01 in 29.89 in -
Precipitation: 0.00 in    
Historical Graphs
 
 
Tabular Data for July 19, 2017
Time Temperature Dew Point Pressure Wind Wind Speed Wind Gust Humidity Rainfall Rate (Hourly)
00:01 76.2 °F 72.7 °F 30.01 in WSW 1.1 mph 3.5 mph 89 % 0.00 in
00:06 76.2 °F 73.1 °F 30.01 in SW 1.1 mph 3.5 mph 90 % 0.00 in
00:11 76.2 °F 73.1 °F 30.01 in SW 0.3 mph 2.3 mph 90 % 0.00 in
00:16 76.2 °F 73.1 °F 30.01 in WSW 1.3 mph 9.2 mph 90 % 0.00 in
00:21 76.1 °F 73.0 °F 30.01 in SW 0.5 mph 1.2 mph 90 % 0.00 in
00:26 76.1 °F 73.0 °F 30.01 in SW 1.7 mph 3.5 mph 90 % 0.00 in
00:28 76.1 °F 73.0 °F 30.01 in WSW 1.4 mph 5.8 mph 90 % 0.00 in
00:34 76.1 °F 73.0 °F 30.01 in SW 1.4 mph 3.5 mph 90 % 0.00 in
00:39 76.0 °F 72.5 °F 30.01 in WSW 1.7 mph 5.0 mph 89 % 0.00 in
00:44 76.0 °F 72.5 °F 30.00 in SW 1.0 mph 2.3 mph 89 % 0.00 in
00:49 76.0 °F 72.5 °F 30.00 in SW 1.3 mph 3.5 mph 89 % 0.00 in
00:54 75.9 °F 72.4 °F 30.00 in West 2.0 mph 3.5 mph 89 % 0.00 in
00:59 75.9 °F 72.4 °F 30.00 in SW 1.2 mph 4.6 mph 89 % 0.00 in
01:04 75.9 °F 72.4 °F 30.00 in SW 1.6 mph 5.8 mph 89 % 0.00 in
01:09 75.8 °F 72.3 °F 30.00 in WSW 1.6 mph 3.5 mph 89 % 0.00 in
01:14 75.8 °F 72.3 °F 30.00 in WSW 1.7 mph 4.6 mph 89 % 0.00 in
01:19 75.8 °F 72.3 °F 30.00 in SSW 0.1 mph 3.5 mph 89 % 0.00 in
01:24 75.7 °F 72.2 °F 30.01 in SW 0.2 mph 1.2 mph 89 % 0.00 in
01:29 75.7 °F 72.2 °F 30.01 in WSW 1.5 mph 3.5 mph 89 % 0.00 in
01:34 75.7 °F 72.2 °F 30.01 in SW 1.1 mph 6.9 mph 89 % 0.00 in
01:39 75.7 °F 72.2 °F 30.00 in SW 0.7 mph 3.5 mph 89 % 0.00 in
01:44 75.6 °F 72.1 °F 30.00 in SW 0.3 mph 3.5 mph 89 % 0.00 in
01:49 75.6 °F 72.1 °F 30.01 in SSW 0.6 mph 2.3 mph 89 % 0.00 in
01:55 75.5 °F 72.0 °F 30.00 in SSW 1.2 mph 2.3 mph 89 % 0.00 in
02:00 75.5 °F 72.0 °F 30.00 in WSW 1.6 mph 3.5 mph 89 % 0.00 in
02:05 75.5 °F 72.0 °F 30.00 in SW 0.8 mph 4.6 mph 89 % 0.00 in
02:10 75.5 °F 72.0 °F 30.00 in SW 0.3 mph 1.2 mph 89 % 0.00 in
02:15 75.5 °F 72.0 °F 30.00 in SW 0.1 mph 3.5 mph 89 % 0.00 in
02:20 75.4 °F 71.9 °F 30.00 in WSW 0.3 mph 4.0 mph 89 % 0.00 in
02:25 75.4 °F 71.9 °F 30.00 in WSW 1.4 mph 3.0 mph 89 % 0.00 in
02:30 75.4 °F 71.9 °F 30.00 in SW 2.0 mph 3.5 mph 89 % 0.00 in
02:35 75.4 °F 71.9 °F 30.00 in SW 1.0 mph 4.6 mph 89 % 0.00 in
02:40 75.4 °F 71.9 °F 30.00 in WSW 0.3 mph 3.5 mph 89 % 0.00 in
02:45 75.4 °F 71.9 °F 30.00 in South 0.7 mph 3.5 mph 89 % 0.00 in
02:51 75.4 °F 71.9 °F 30.00 in South 0.2 mph 2.3 mph 89 % 0.00 in
02:55 75.4 °F 71.9 °F 30.00 in Calm   1.0 mph 89 % 0.00 in
03:01 75.4 °F 71.9 °F 30.00 in South 0.3 mph 1.2 mph 89 % 0.00 in
03:06 75.3 °F 71.8 °F 30.00 in WSW 0.1 mph 1.2 mph 89 % 0.00 in
03:11 75.3 °F 71.8 °F 30.00 in WSW 0.3 mph 1.2 mph 89 % 0.00 in
03:16 75.3 °F 71.8 °F 30.00 in Calm   1.2 mph 89 % 0.00 in
03:21 75.2 °F 71.7 °F 30.00 in SW 0.4 mph 2.0 mph 89 % 0.00 in
03:26 75.2 °F 72.1 °F 29.99 in SW 0.7 mph 2.3 mph 90 % 0.00 in
03:31 75.2 °F 72.1 °F 29.99 in SW 0.7 mph 2.3 mph 90 % 0.00 in
03:36 75.1 °F 72.0 °F 29.99 in WSW 1.3 mph 4.6 mph 90 % 0.00 in
03:41 75.1 °F 72.0 °F 29.99 in SSW 0.1 mph 1.2 mph 90 % 0.00 in
03:46 75.1 °F 72.0 °F 29.99 in Calm   2.3 mph 90 % 0.00 in
03:51 75.0 °F 71.9 °F 29.99 in WSW 0.1 mph 1.2 mph 90 % 0.00 in
03:56 75.0 °F 71.9 °F 29.99 in WSW 1.3 mph 1.3 mph 90 % 0.00 in
04:01 75.0 °F 71.9 °F 29.99 in Calm     90 % 0.00 in
04:06 74.9 °F 71.8 °F 29.99 in Calm   1.2 mph 90 % 0.00 in
04:11 74.9 °F 72.1 °F 29.98 in Calm   1.2 mph 91 % 0.00 in
04:16 74.9 °F 72.1 °F 29.99 in West 0.1 mph 5.8 mph 91 % 0.00 in
04:21 74.8 °F 72.0 °F 29.99 in Calm   1.2 mph 91 % 0.00 in
04:26 74.8 °F 72.0 °F 29.99 in West 0.1 mph 1.2 mph 91 % 0.00 in
04:32 74.7 °F 71.9 °F 29.99 in West 0.6 mph 1.2 mph 91 % 0.00 in
04:37 74.7 °F 71.9 °F 29.99 in West 0.2 mph 1.2 mph 91 % 0.00 in
04:42 74.6 °F 71.8 °F 29.99 in Calm   2.3 mph 91 % 0.00 in
04:47 74.5 °F 71.7 °F 29.99 in Calm     91 % 0.00 in
04:52 74.5 °F 71.7 °F 29.99 in West 0.2 mph 2.0 mph 91 % 0.00 in
04:57 74.4 °F 71.6 °F 29.99 in West 0.4 mph 2.0 mph 91 % 0.00 in
05:02 74.4 °F 71.6 °F 29.99 in West 0.1 mph 1.2 mph 91 % 0.00 in
05:07 74.4 °F 71.9 °F 29.99 in Calm     92 % 0.00 in
05:12 74.3 °F 71.8 °F 29.99 in Calm   1.2 mph 92 % 0.00 in
05:17 74.3 °F 71.8 °F 29.99 in Calm     92 % 0.00 in
05:22 74.2 °F 71.7 °F 29.99 in Calm     92 % 0.00 in
05:27 74.2 °F 71.7 °F 29.99 in Calm     92 % 0.00 in
05:32 74.1 °F 71.6 °F 29.99 in Calm   1.2 mph 92 % 0.00 in
05:37 74.1 °F 71.6 °F 29.99 in Calm   1.2 mph 92 % 0.00 in
05:42 74.0 °F 71.5 °F 29.99 in Calm     92 % 0.00 in
05:47 74.0 °F 71.5 °F 29.99 in Calm     92 % 0.00 in
05:52 74.0 °F 71.5 °F 29.99 in Calm     92 % 0.00 in
05:57 73.9 °F 71.4 °F 29.99 in Calm     92 % 0.00 in
06:02 73.9 °F 71.4 °F 29.99 in Calm     92 % 0.00 in
06:07 73.9 °F 71.7 °F 29.99 in Calm     93 % 0.00 in
06:12 73.9 °F 71.7 °F 29.99 in Calm     93 % 0.00 in
06:17 73.9 °F 71.7 °F 29.99 in Calm     93 % 0.00 in
06:23 73.9 °F 71.7 °F 29.99 in Calm     93 % 0.00 in
06:28 74.0 °F 71.8 °F 29.99 in West 0.1 mph 1.2 mph 93 % 0.00 in
06:33 74.0 °F 71.8 °F 29.99 in West 0.4 mph 2.3 mph 93 % 0.00 in
06:38 74.2 °F 72.4 °F 29.99 in West 0.1 mph 1.2 mph 94 % 0.00 in
06:43 74.3 °F 72.5 °F 29.99 in Calm   1.2 mph 94 % 0.00 in
06:48 74.5 °F 72.7 °F 29.99 in Calm     94 % 0.00 in
06:53 74.7 °F 72.9 °F 29.99 in West 0.8 mph 3.5 mph 94 % 0.00 in
06:58 74.9 °F 73.1 °F 29.99 in West 1.0 mph 2.3 mph 94 % 0.00 in
07:03 75.2 °F 73.4 °F 30.00 in WSW 3.1 mph 3.5 mph 94 % 0.00 in
07:08 75.4 °F 73.6 °F 30.00 in WSW 0.4 mph 1.2 mph 94 % 0.00 in
07:13 75.8 °F 73.9 °F 30.00 in SSW 1.6 mph 3.5 mph 94 % 0.00 in
07:17 76.0 °F 73.8 °F 30.00 in SW 0.4 mph 3.5 mph 93 % 0.00 in
07:22 76.4 °F 74.2 °F 30.00 in SW 0.5 mph 4.0 mph 93 % 0.00 in
07:27 76.8 °F 74.6 °F 30.00 in Calm   2.3 mph 93 % 0.00 in
07:32 77.2 °F 74.7 °F 30.00 in Calm     92 % 0.00 in
07:37 77.5 °F 74.7 °F 30.00 in SW 0.3 mph 1.2 mph 91 % 0.00 in
07:42 77.8 °F 75.0 °F 30.00 in SW 0.8 mph 2.3 mph 91 % 0.00 in
07:47 78.1 °F 74.9 °F 30.01 in SW 0.8 mph 2.3 mph 90 % 0.00 in
07:52 78.3 °F 74.8 °F 30.00 in SW 1.3 mph 4.0 mph 89 % 0.00 in
07:57 78.5 °F 75.0 °F 30.00 in SW 0.2 mph 2.3 mph 89 % 0.00 in
08:02 78.6 °F 75.1 °F 30.00 in SW 1.1 mph 3.5 mph 89 % 0.00 in
08:07 78.7 °F 74.8 °F 30.00 in SW 0.2 mph 1.2 mph 88 % 0.00 in
08:12 78.8 °F 74.9 °F 30.00 in WSW 3.2 mph 5.8 mph 88 % 0.00 in
08:17 78.9 °F 75.0 °F 30.00 in SSW 2.0 mph 3.0 mph 88 % 0.00 in
08:22 79.0 °F 75.1 °F 30.00 in WSW 0.6 mph 6.9 mph 88 % 0.00 in
08:27 79.1 °F 75.2 °F 30.00 in SW 2.7 mph 3.5 mph 88 % 0.00 in
08:32 79.3 °F 75.4 °F 30.00 in SW 1.9 mph 3.5 mph 88 % 0.00 in
08:37 79.4 °F 75.5 °F 30.00 in SW 1.1 mph 3.5 mph 88 % 0.00 in
08:42 79.6 °F 75.4 °F 30.00 in WSW 3.1 mph 5.8 mph 87 % 0.00 in
08:47 79.7 °F 75.5 °F 30.00 in West 1.2 mph 3.0 mph 87 % 0.00 in
08:52 79.9 °F 76.0 °F 30.00 in WSW 0.8 mph 2.3 mph 88 % 0.00 in
08:58 80.0 °F 75.8 °F 30.00 in SSW 4.5 mph 6.0 mph 87 % 0.00 in
09:03 80.2 °F 75.6 °F 30.00 in WNW 3.0 mph 5.8 mph 86 % 0.00 in
09:08 80.5 °F 75.9 °F 30.00 in West 2.3 mph 4.6 mph 86 % 0.00 in
09:13 80.7 °F 76.1 °F 30.00 in SSW 0.8 mph 3.0 mph 86 % 0.00 in
09:18 80.9 °F 76.3 °F 29.99 in WNW 0.4 mph 3.0 mph 86 % 0.00 in
09:23 81.2 °F 76.6 °F 29.99 in West 0.9 mph 3.5 mph 86 % 0.00 in
09:28 81.4 °F 76.1 °F 29.99 in SW 3.5 mph 5.8 mph 84 % 0.00 in
09:33 81.6 °F 75.9 °F 29.99 in SW 0.9 mph 3.5 mph 83 % 0.00 in
09:38 81.9 °F 75.9 °F 29.99 in WSW 2.1 mph 5.0 mph 82 % 0.00 in
09:43 82.2 °F 76.2 °F 29.99 in WSW 1.5 mph 3.5 mph 82 % 0.00 in
09:48 82.6 °F 76.5 °F 29.99 in SW 1.4 mph 3.5 mph 82 % 0.00 in
09:53 83.0 °F 76.2 °F 29.98 in WNW 0.4 mph 1.2 mph 80 % 0.00 in
09:58 83.6 °F 76.4 °F 29.98 in West 0.5 mph 3.5 mph 79 % 0.00 in
10:03 84.3 °F 77.5 °F 29.98 in WNW 1.5 mph 3.0 mph 80 % 0.00 in
10:08 84.9 °F 78.0 °F 29.99 in WSW 3.7 mph 5.0 mph 80 % 0.00 in
10:13 85.7 °F 77.3 °F 29.99 in WSW 1.9 mph 4.6 mph 76 % 0.00 in
10:18 86.4 °F 77.9 °F 29.99 in SW 2.7 mph 4.0 mph 76 % 0.00 in
10:23 86.9 °F 77.2 °F 29.98 in WSW 2.4 mph 4.6 mph 73 % 0.00 in
10:24 87.0 °F 77.7 °F 29.99 in WSW 1.0 mph 3.5 mph 74 % 0.00 in
10:29 87.5 °F 77.8 °F 29.99 in North 1.6 mph 3.5 mph 73 % 0.00 in
10:34 88.2 °F 78.4 °F 29.99 in North 1.1 mph 2.3 mph 73 % 0.00 in
10:39 88.8 °F 78.6 °F 29.99 in North 1.3 mph 3.5 mph 72 % 0.00 in
10:44 89.4 °F 79.2 °F 29.99 in NW 2.0 mph 3.5 mph 72 % 0.00 in
10:49 89.9 °F 79.2 °F 29.99 in NNW 2.1 mph 2.3 mph 71 % 0.00 in
10:54 90.4 °F 79.3 °F 29.98 in NNE 2.3 mph 3.5 mph 70 % 0.00 in
10:59 91.0 °F 79.4 °F 29.99 in NNE 1.7 mph 3.5 mph 69 % 0.00 in
11:04 91.4 °F 79.8 °F 29.98 in NNW 0.8 mph 3.5 mph 69 % 0.00 in
11:09 91.9 °F 79.4 °F 29.98 in NNW 0.2 mph 2.0 mph 67 % 0.00 in
11:14 92.3 °F 78.8 °F 29.98 in West 1.9 mph 3.5 mph 65 % 0.00 in
11:19 92.5 °F 78.1 °F 29.98 in SW 2.2 mph 3.5 mph 63 % 0.00 in
11:24 92.7 °F 78.7 °F 29.98 in SW 1.1 mph 4.6 mph 64 % 0.00 in
11:30 93.1 °F 79.6 °F 29.98 in West 0.1 mph 1.2 mph 65 % 0.00 in
11:35 93.6 °F 79.1 °F 29.98 in NW 1.6 mph 4.0 mph 63 % 0.00 in
11:40 94.0 °F 80.0 °F 29.98 in NW 0.4 mph 2.3 mph 64 % 0.00 in
11:45 94.2 °F 79.7 °F 29.98 in NNE 1.4 mph 3.5 mph 63 % 0.00 in
11:50 94.6 °F 80.0 °F 29.97 in Calm   1.2 mph 63 % 0.00 in
11:55 94.9 °F 77.8 °F 29.97 in WSW 2.5 mph 6.0 mph 58 % 0.00 in
12:00 95.1 °F 78.0 °F 29.98 in WNW 1.7 mph 4.6 mph 58 % 0.00 in
12:05 95.3 °F 77.7 °F 29.97 in West 2.2 mph 3.5 mph 57 % 0.00 in
12:10 95.5 °F 78.4 °F 29.97 in West 0.1 mph 3.5 mph 58 % 0.00 in
12:16 95.6 °F 76.9 °F 29.97 in WNW 2.0 mph 7.0 mph 55 % 0.00 in
12:21 95.6 °F 75.7 °F 29.96 in Calm   6.0 mph 53 % 0.00 in
12:26 95.7 °F 75.8 °F 29.97 in West 1.0 mph 5.0 mph 53 % 0.00 in
12:31 95.6 °F 73.9 °F 29.96 in WSW 3.0 mph 7.0 mph 50 % 0.00 in
12:36 95.4 °F 73.2 °F 29.96 in WSW 5.0 mph 7.0 mph 49 % 0.00 in
12:41 95.2 °F 73.6 °F 29.96 in West 1.0 mph 6.9 mph 50 % 0.00 in
12:46 95.2 °F 74.2 °F 29.96 in West 1.9 mph 3.5 mph 51 % 0.00 in
12:51 95.3 °F 74.3 °F 29.95 in WSW 2.3 mph 5.8 mph 51 % 0.00 in
12:56 95.3 °F 74.9 °F 29.95 in WSW 6.0 mph 8.0 mph 52 % 0.00 in
13:01 95.4 °F 75.6 °F 29.95 in SW 2.0 mph 4.6 mph 53 % 0.00 in
13:06 95.4 °F 75.6 °F 29.95 in West 2.8 mph 4.6 mph 53 % 0.00 in
13:11 95.4 °F 73.8 °F 29.95 in SW 5.1 mph 6.9 mph 50 % 0.00 in
13:16 95.4 °F 73.8 °F 29.94 in West 0.5 mph 3.5 mph 50 % 0.00 in
13:21 95.5 °F 71.4 °F 29.94 in SW 4.2 mph 6.0 mph 46 % 0.00 in
13:26 95.7 °F 72.2 °F 29.94 in SSW 3.7 mph 6.9 mph 47 % 0.00 in
13:31 95.8 °F 71.7 °F 29.94 in WSW 3.4 mph 5.8 mph 46 % 0.00 in
13:36 96.0 °F 71.2 °F 29.94 in West 2.8 mph 9.2 mph 45 % 0.00 in
13:41 96.1 °F 71.3 °F 29.94 in West 2.1 mph 10.4 mph 45 % 0.00 in
13:46 96.2 °F 70.7 °F 29.93 in SSW 3.7 mph 6.0 mph 44 % 0.00 in
13:51 96.3 °F 68.8 °F 29.93 in SW 8.2 mph 12.7 mph 41 % 0.00 in
13:56 96.3 °F 69.5 °F 29.93 in SW 3.6 mph 6.0 mph 42 % 0.00 in
14:01 96.4 °F 68.9 °F 29.93 in West 2.0 mph 4.6 mph 41 % 0.00 in
14:06 96.6 °F 67.6 °F 29.93 in WSW 5.2 mph 8.0 mph 39 % 0.00 in
14:11 96.6 °F 65.3 °F 29.93 in SW 2.3 mph 6.9 mph 36 % 0.00 in
14:16 96.6 °F 64.5 °F 29.93 in WSW 7.2 mph 11.5 mph 35 % 0.00 in
14:21 96.7 °F 65.4 °F 29.93 in WSW 5.8 mph 9.0 mph 36 % 0.00 in
14:26 96.7 °F 66.1 °F 29.93 in West 3.8 mph 9.0 mph 37 % 0.00 in
14:31 96.8 °F 67.0 °F 29.93 in WSW 3.7 mph 5.8 mph 38 % 0.00 in
14:36 96.9 °F 66.3 °F 29.93 in SSW 2.4 mph 4.6 mph 37 % 0.00 in
14:41 97.0 °F 67.9 °F 29.93 in WNW 2.0 mph 4.0 mph 39 % 0.00 in
14:46 97.1 °F 66.5 °F 29.93 in West 2.7 mph 3.5 mph 37 % 0.00 in
14:51 97.1 °F 66.5 °F 29.93 in WNW 3.4 mph 6.0 mph 37 % 0.00 in
14:56 97.2 °F 67.4 °F 29.93 in WSW 2.7 mph 6.9 mph 38 % 0.00 in
15:02 97.2 °F 68.1 °F 29.93 in WSW 4.4 mph 4.4 mph 39 % 0.00 in
15:07 97.3 °F 69.7 °F 29.93 in NW 0.7 mph 5.0 mph 41 % 0.00 in
15:12 97.2 °F 68.1 °F 29.93 in NW 1.1 mph 6.9 mph 39 % 0.00 in
15:17 97.2 °F 68.1 °F 29.93 in West 2.4 mph 9.2 mph 39 % 0.00 in
15:22 97.1 °F 68.0 °F 29.92 in NW 2.5 mph 6.9 mph 39 % 0.00 in
15:27 96.9 °F 67.8 °F 29.92 in North 3.4 mph 5.8 mph 39 % 0.00 in
15:32 96.8 °F 68.5 °F 29.92 in WNW 3.3 mph 5.8 mph 40 % 0.00 in
15:37 96.6 °F 70.4 °F 29.92 in West 1.6 mph 6.0 mph 43 % 0.00 in
15:39 96.5 °F 68.2 °F 29.92 in SSW 7.4 mph 11.5 mph 40 % 0.00 in
15:44 96.4 °F 68.9 °F 29.92 in West 5.7 mph 9.0 mph 41 % 0.00 in
15:49 96.4 °F 70.3 °F 29.92 in WNW 3.1 mph 6.0 mph 43 % 0.00 in
15:54 96.3 °F 69.5 °F 29.92 in WNW 0.8 mph 3.5 mph 42 % 0.00 in
15:59 96.4 °F 68.1 °F 29.91 in WNW 4.7 mph 8.1 mph 40 % 0.00 in
16:04 96.4 °F 70.9 °F 29.91 in NW 3.0 mph 5.8 mph 44 % 0.00 in
16:09 96.3 °F 69.5 °F 29.91 in WNW 1.8 mph 5.0 mph 42 % 0.00 in
16:14 96.4 °F 69.6 °F 29.91 in NW 5.7 mph 11.5 mph 42 % 0.00 in
16:19 96.5 °F 70.3 °F 29.91 in WNW 1.4 mph 5.8 mph 43 % 0.00 in
16:24 96.5 °F 69.7 °F 29.91 in WNW 2.6 mph 5.0 mph 42 % 0.00 in
16:29 96.4 °F 69.6 °F 29.91 in NW 3.6 mph 6.0 mph 42 % 0.00 in
16:34 96.2 °F 68.7 °F 29.91 in SSW 1.6 mph 4.6 mph 41 % 0.00 in
16:39 96.3 °F 70.8 °F 29.90 in NNW 0.7 mph 4.6 mph 44 % 0.00 in
16:44 96.3 °F 69.5 °F 29.91 in SW 1.5 mph 3.5 mph 42 % 0.00 in
16:49 96.3 °F 70.8 °F 29.90 in SW 2.0 mph 3.0 mph 44 % 0.00 in
16:54 96.1 °F 70.0 °F 29.90 in SW 3.1 mph 5.8 mph 43 % 0.00 in
16:59 96.0 °F 69.9 °F 29.90 in WNW 3.4 mph 5.0 mph 43 % 0.00 in
17:05 95.8 °F 70.4 °F 29.90 in WSW 1.5 mph 6.9 mph 44 % 0.00 in
17:10 95.7 °F 69.6 °F 29.90 in West 0.1 mph 2.3 mph 43 % 0.00 in
17:15 95.5 °F 70.1 °F 29.90 in SSW 3.2 mph 8.1 mph 44 % 0.00 in
17:20 95.4 °F 69.4 °F 29.90 in WSW 1.0 mph 3.5 mph 43 % 0.00 in
17:25 95.1 °F 69.1 °F 29.90 in WSW 2.2 mph 4.6 mph 43 % 0.00 in
17:30 94.8 °F 68.8 °F 29.90 in WSW 2.4 mph 5.8 mph 43 % 0.00 in
17:35 94.6 °F 71.9 °F 29.90 in WSW 1.3 mph 4.6 mph 48 % 0.00 in
17:40 94.4 °F 74.1 °F 29.90 in West 2.7 mph 5.0 mph 52 % 0.00 in
17:45 94.1 °F 74.9 °F 29.90 in SSW 2.7 mph 6.0 mph 54 % 0.00 in
17:50 93.7 °F 74.5 °F 29.90 in West 2.7 mph 6.9 mph 54 % 0.00 in
17:55 93.3 °F 75.3 °F 29.90 in SSE 1.3 mph 3.5 mph 56 % 0.00 in
18:00 92.7 °F 74.7 °F 29.89 in SE 0.6 mph 2.0 mph 56 % 0.00 in
18:05 92.2 °F 74.8 °F 29.90 in SSW 0.4 mph 3.5 mph 57 % 0.00 in
18:10 91.8 °F 74.9 °F 29.90 in SSW 4.4 mph 4.6 mph 58 % 0.00 in
18:15 91.3 °F 75.0 °F 29.89 in South 2.1 mph 3.5 mph 59 % 0.00 in
18:20 90.8 °F 74.5 °F 29.89 in SSW 2.2 mph 3.5 mph 59 % 0.00 in
18:25 90.4 °F 74.6 °F 29.89 in SW 2.4 mph 6.9 mph 60 % 0.00 in
18:30 90.0 °F 74.7 °F 29.89 in SW 1.4 mph 2.3 mph 61 % 0.00 in
18:35 89.7 °F 74.9 °F 29.90 in SW 0.5 mph 3.5 mph 62 % 0.00 in
18:38 89.4 °F 74.7 °F 29.90 in SW 0.6 mph 2.0 mph 62 % 0.00 in
18:43 89.0 °F 74.3 °F 29.90 in South 0.5 mph 2.3 mph 62 % 0.00 in
18:48 88.6 °F 74.4 °F 29.90 in SSE 2.2 mph 3.5 mph 63 % 0.00 in
18:53 88.2 °F 74.0 °F 29.90 in South 4.4 mph 8.1 mph 63 % 0.00 in
18:58 87.8 °F 73.6 °F 29.90 in SW 1.4 mph 4.6 mph 63 % 0.00 in
19:03 87.5 °F 74.3 °F 29.90 in SSE 1.2 mph 4.0 mph 65 % 0.00 in
19:08 87.3 °F 73.6 °F 29.90 in SSW 0.6 mph 3.5 mph 64 % 0.00 in
19:13 87.0 °F 73.8 °F 29.90 in SW 1.0 mph 4.0 mph 65 % 0.00 in
19:18 86.7 °F 73.5 °F 29.90 in South 0.6 mph 3.5 mph 65 % 0.00 in
19:23 86.5 °F 73.3 °F 29.90 in South 0.3 mph 2.3 mph 65 % 0.00 in
19:28 86.3 °F 73.6 °F 29.90 in South 0.5 mph 2.3 mph 66 % 0.00 in
19:33 86.0 °F 73.8 °F 29.90 in SSE 0.8 mph 1.2 mph 67 % 0.00 in
19:38 85.6 °F 73.4 °F 29.90 in SE 0.8 mph 3.5 mph 67 % 0.00 in
19:43 85.3 °F 73.5 °F 29.90 in South 0.9 mph 3.5 mph 68 % 0.00 in
19:48 85.1 °F 73.8 °F 29.90 in West 0.2 mph 2.3 mph 69 % 0.00 in
19:53 84.8 °F 73.5 °F 29.90 in SW 1.2 mph 3.5 mph 69 % 0.00 in
19:58 84.6 °F 73.7 °F 29.90 in ESE 0.1 mph 2.3 mph 70 % 0.00 in
20:03 84.3 °F 73.4 °F 29.91 in SSW 0.6 mph 3.0 mph 70 % 0.00 in
20:09 84.0 °F 73.6 °F 29.91 in SSW 0.6 mph 2.3 mph 71 % 0.00 in
20:14 83.8 °F 73.4 °F 29.91 in SSW 1.3 mph 3.5 mph 71 % 0.00 in
20:19 83.6 °F 73.6 °F 29.91 in SSW 0.1 mph 1.2 mph 72 % 0.00 in
20:24 83.3 °F 73.3 °F 29.92 in South 0.1 mph 1.2 mph 72 % 0.00 in
20:29 83.1 °F 73.5 °F 29.92 in SW 1.0 mph 2.3 mph 73 % 0.00 in
20:34 82.9 °F 73.4 °F 29.92 in SW 2.1 mph 3.5 mph 73 % 0.00 in
20:39 82.6 °F 73.1 °F 29.92 in SW 0.4 mph 3.5 mph 73 % 0.00 in
20:40 82.6 °F 73.1 °F 29.92 in SW 0.7 mph 3.5 mph 73 % 0.00 in
20:45 82.3 °F 73.2 °F 29.92 in Calm   1.2 mph 74 % 0.00 in
20:50 82.1 °F 73.0 °F 29.93 in SSW 0.2 mph 2.0 mph 74 % 0.00 in
20:52 82.1 °F 73.0 °F 29.93 in SSW 0.9 mph 2.3 mph 74 % 0.00 in
20:57 81.9 °F 72.8 °F 29.93 in SSW 0.1 mph 1.2 mph 74 % 0.00 in
21:02 81.6 °F 72.9 °F 29.93 in Calm   2.3 mph 75 % 0.00 in
21:07 81.4 °F 72.7 °F 29.93 in Calm     75 % 0.00 in
21:12 81.2 °F 72.9 °F 29.93 in WSW 1.8 mph 3.5 mph 76 % 0.00 in
21:17 81.0 °F 72.7 °F 29.93 in Calm   1.2 mph 76 % 0.00 in
21:22 80.8 °F 72.9 °F 29.93 in WSW 0.5 mph 2.3 mph 77 % 0.00 in
21:27 80.7 °F 72.8 °F 29.93 in WSW 0.9 mph 3.5 mph 77 % 0.00 in
21:32 80.5 °F 72.6 °F 29.93 in Calm   1.2 mph 77 % 0.00 in
21:37 80.4 °F 72.9 °F 29.93 in Calm   1.2 mph 78 % 0.00 in
21:42 80.3 °F 72.8 °F 29.93 in Calm     78 % 0.00 in
21:47 80.1 °F 72.6 °F 29.93 in WSW 0.1 mph   78 % 0.00 in
21:52 80.0 °F 72.5 °F 29.93 in Calm     78 % 0.00 in
21:57 79.9 °F 72.8 °F 29.93 in WSW 0.6 mph 3.5 mph 79 % 0.00 in
22:02 79.8 °F 72.7 °F 29.93 in WSW 1.7 mph 3.5 mph 79 % 0.00 in
22:07 79.7 °F 72.6 °F 29.93 in WSW 1.0 mph 2.3 mph 79 % 0.00 in
22:12 79.6 °F 72.9 °F 29.93 in WSW 1.8 mph 3.5 mph 80 % 0.00 in
22:18 79.5 °F 72.8 °F 29.93 in WSW 2.4 mph 3.5 mph 80 % 0.00 in
22:23 79.4 °F 72.7 °F 29.93 in WSW 2.2 mph 3.5 mph 80 % 0.00 in
22:28 79.3 °F 72.6 °F 29.93 in WSW 0.6 mph 2.3 mph 80 % 0.00 in
22:33 79.2 °F 72.5 °F 29.93 in WSW 0.2 mph 1.2 mph 80 % 0.00 in
22:38 79.1 °F 72.8 °F 29.92 in WSW 0.8 mph 2.3 mph 81 % 0.00 in
22:43 79.0 °F 72.7 °F 29.93 in Calm   1.2 mph 81 % 0.00 in
22:48 78.9 °F 72.6 °F 29.93 in WSW 0.1 mph 2.3 mph 81 % 0.00 in
22:53 78.8 °F 72.5 °F 29.93 in WSW 0.1 mph 2.3 mph 81 % 0.00 in
22:58 78.7 °F 72.7 °F 29.93 in WSW 0.3 mph 2.3 mph 82 % 0.00 in
23:03 78.5 °F 72.5 °F 29.93 in Calm   1.2 mph 82 % 0.00 in
23:08 78.4 °F 72.4 °F 29.93 in WSW 0.7 mph 2.3 mph 82 % 0.00 in
23:13 78.4 °F 72.1 °F 29.93 in WSW 0.6 mph 1.2 mph 81 % 0.00 in
23:18 78.2 °F 72.3 °F 29.93 in WSW 0.3 mph 1.2 mph 82 % 0.00 in
23:23 78.1 °F 72.2 °F 29.93 in WSW 0.6 mph 1.2 mph 82 % 0.00 in
23:28 78.0 °F 72.1 °F 29.93 in WSW 1.2 mph 2.3 mph 82 % 0.00 in
23:33 77.9 °F 72.0 °F 29.93 in WSW 1.1 mph 2.3 mph 82 % 0.00 in
23:38 77.8 °F 72.2 °F 29.93 in Calm     83 % 0.00 in
23:43 77.8 °F 72.2 °F 29.93 in Calm     83 % 0.00 in
23:48 77.7 °F 72.5 °F 29.93 in WSW 0.3 mph 1.2 mph 84 % 0.00 in
23:53 77.6 °F 72.4 °F 29.93 in Calm   1.2 mph 84 % 0.00 in
23:55 77.6 °F 72.4 °F 29.93 in WSW 0.2 mph 1.2 mph 84 % 0.00 in
Crab Meadow Weather
Compliments of Weather Underground - 3 mb

Script developed by  Jim McMurry - jmcmurry@mwt.net Adapted for the template by  Wim van der Kuil - Leuven-Template.eu

Temperature: You can tell the temperature by counting the clicks a cricket makes in 15 seconds and adding 37!